{"data":{"norad_id":67449,"epoch":"2026-09-19T12:21:42.965568Z","epoch_age_seconds":160434,"freshness":"FRESH","line1":"1 67449U 26008E   26262.51508062  .00009471  00000+0  35314-3 0  9990","line2":"2 67449  43.0009 190.7463 0001571 266.3057  93.7615 15.27590858 39217","mean_motion":15.27590858,"eccentricity":0.0001571,"inclination_deg":43.0009,"raan_deg":190.7463,"arg_perigee_deg":266.3057,"mean_anomaly_deg":93.7615,"bstar":0.00035314,"rev_number":3921,"period_min":94.266078672749,"perigee_km":481.93869624613,"apogee_km":484.09447070206,"semimajor_km":6861.1535834741,"source":"CELESTRAK","updated_at":"2026-09-20T09:00:43.527165Z"}}